Dallas, TX

8:49 AM CST on February 24, 2017 (GMT -0600)
Dallas-Fort Worth International

Weather History for KDFW - July, 2012

Change the Weather History Date:

Saturday, July 7, 2012

  Actual Average Record
Temperature  
Mean Temperature 88 °F 85 °F  
Max Temperature 101 °F 95 °F 106 °F (1996)
Min Temperature 74 °F 75 °F 64 °F (1972)
Degree Days  
Heating Degree Days 0 0  
Month to date heating degree days 0 0  
Since 1 June heating degree days 0 0  
Since 1 July heating degree days 0 0  
Cooling Degree Days 23 20  
Month to date cooling degree days 155 135  
Year to date cooling degree days 1427 1048  
Since 1 June cooling degree days 740 626  
Growing Degree Days 38 (Base 50)    
Moisture  
Dew Point 66 °F    
Average Humidity 56    
Maximum Humidity 82    
Minimum Humidity 29    
Precipitation  
Precipitation 0.00 in 0.09 in 3.01 in (1973)
Month to date precipitation 0.05 0.64  
Year to date precipitation 22.57 20.68  
Sea Level Pressure  
Sea Level Pressure 29.97 in    
Wind  
Wind Speed 7 mph (South)    
Max Wind Speed 36 mph    
Max Gust Speed 47 mph    
Visibility 10 miles    
Events      
T = Trace of Precipitation, MM = Missing Value Source: NWS Daily Summary

Daily Weather History Graph

Daily Weather History Graph

Search for Another Location

Airport or City:

Trip Planner

Search our weather history database for the weather conditions in past years. The results will help you decide how hot, cold, wet, or windy it might be!

Date:

Astronomy

Jul. 07, 2012 Rise Set
Actual Time 6:26 AM CDT 8:39 PM CDT
Civil Twilight 5:58 AM CDT 9:08 PM CDT
Nautical Twilight 5:23 AM CDT 9:42 PM CDT
Astronomical Twilight 4:45 AM CDT 10:20 PM CDT
Moon 11:17 PM CDT (7/7) 10:36 AM CDT (7/7)
Length of Visible Light 15h 09m
Length of Day
14h 13m
Waning Gibbous, 81% of the Moon is Illuminated
Jul 7
Waning Gibbous
Jul 10
Last Quarter
Jul 18
New
Jul 26
First Quarter
Aug 1
Full

Hourly Weather History & Observations

Time (CDT) Temp. Heat Index Dew Point Humidity Pressure Visibility Wind Dir Wind Speed Gust Speed Precip Events Conditions
12:53 AM 86.0 °F 87.3 °F 64.0 °F 48% 29.97 in 10.0 mi South 6.9 mph - N/A   Scattered Clouds
1:53 AM 84.9 °F 86.6 °F 64.9 °F 51% 29.96 in 10.0 mi South 8.1 mph - N/A   Scattered Clouds
2:53 AM 82.9 °F 84.6 °F 64.9 °F 54% 29.95 in 10.0 mi Calm Calm - N/A   Scattered Clouds
3:53 AM 81.0 °F 83.0 °F 66.0 °F 60% 29.95 in 10.0 mi SSE 4.6 mph - N/A   Scattered Clouds
4:53 AM 80.1 °F 82.3 °F 66.9 °F 64% 29.96 in 10.0 mi SSW 4.6 mph - N/A   Scattered Clouds
5:53 AM 78.8 °F - 66.2 °F 65% 30.00 in 10.0 mi SSW 3.5 mph - N/A   Scattered Clouds
6:53 AM 79.0 °F - 68.0 °F 69% 29.98 in 10.0 mi Calm Calm - N/A   Mostly Cloudy
7:53 AM 82.0 °F 84.9 °F 68.0 °F 62% 30.00 in 10.0 mi Calm Calm - N/A   Mostly Cloudy
8:53 AM 84.9 °F 87.1 °F 66.0 °F 53% 30.01 in 10.0 mi SW 3.5 mph - N/A   Mostly Cloudy
9:53 AM 87.1 °F 89.2 °F 66.0 °F 49% 30.01 in 10.0 mi WSW 9.2 mph - N/A   Mostly Cloudy
10:53 AM 91.9 °F 94.5 °F 66.0 °F 42% 30.01 in 10.0 mi WSW 4.6 mph - N/A   Mostly Cloudy
11:53 AM 93.9 °F 95.2 °F 63.0 °F 36% 30.01 in 10.0 mi SW 3.5 mph - N/A   Scattered Clouds
12:53 PM 97.0 °F 97.8 °F 62.1 °F 31% 29.99 in 10.0 mi Variable 3.5 mph - N/A   Scattered Clouds
1:53 PM 99.0 °F 100.5 °F 62.1 °F 30% 29.96 in 10.0 mi Variable 4.6 mph - N/A   Scattered Clouds
2:53 PM 99.0 °F 99.5 °F 61.0 °F 28% 29.94 in 10.0 mi Variable 3.5 mph - N/A   Scattered Clouds
3:53 PM 89.1 °F 92.1 °F 66.9 °F 48% 29.95 in 9.0 mi NE 28.8 mph 47.2 mph N/A   Mostly Cloudy
4:05 PM 87.8 °F 91.4 °F 68.0 °F 52% 30.00 in 10.0 mi ENE 33.4 mph 44.9 mph N/A   Mostly Cloudy
4:53 PM 82.9 °F 85.8 °F 68.0 °F 60% 29.97 in 10.0 mi ENE 24.2 mph 35.7 mph N/A   Overcast
5:53 PM 82.0 °F 84.1 °F 66.0 °F 58% 29.96 in 10.0 mi ESE 13.8 mph 21.9 mph N/A   Overcast
6:53 PM 80.1 °F 82.3 °F 66.9 °F 64% 29.94 in 10.0 mi SE 6.9 mph - N/A   Overcast
7:53 PM 80.1 °F 82.1 °F 66.0 °F 62% 29.95 in 10.0 mi South 6.9 mph - N/A   Overcast
8:53 PM 79.0 °F - 66.9 °F 66% 29.95 in 10.0 mi SSE 8.1 mph - N/A   Overcast
9:53 PM 77.0 °F - 68.0 °F 74% 29.98 in 10.0 mi South 6.9 mph - N/A   Overcast
10:53 PM 75.9 °F - 69.1 °F 79% 29.98 in 10.0 mi SE 4.6 mph - N/A   Mostly Cloudy
11:53 PM 75.9 °F - 68.0 °F 76% 29.97 in 10.0 mi South 5.8 mph - N/A   Scattered Clouds